Regional Weather Roundup
Issued by NWS

Home | Current Version | Previous Version | Graphics & Text | Print | Product List | Glossary On
Versions: 1 2 3 4 5 6 7 8 9 10 11 12 13 14 15 16 17 18 19 20 21 22 23 24 25 26 27 28 29 30 31 32 33 34 35 36 37 38 39 40 41 42 43 44 45 46 47 48 49 50
000
ASUS43 KFSD 260210
RWRSD

WEATHER ROUNDUP FOR SOUTH DAKOTA
NATIONAL WEATHER SERVICE SIOUX FALLS SD
900 PM CDT SAT MAR 25 2017

NOTE: "FAIR" INDICATES FEW OR NO CLOUDS BELOW 12,000 FEET WITH NO
SIGNIFICANT WEATHER AND/OR OBSTRUCTIONS TO VISIBILITY.


SDZ001>005-009-010-012>017-260300-
NORTHWEST AND NORTH CENTRAL SOUTH DAKOTA

CITY           SKY/WX    TMP DP  RH WIND       PRES   REMARKS
BUFFALO          N/A     53  32  44 N14       29.82R
FAITH            N/A     48  32  53 MISG      29.86R
MOBRIDGE       CLOUDY    47  31  53 E13       29.89R
$$

SDZ012>016-024>037-041>051-057-063-072>074-260300-
SOUTHWEST AND SOUTH CENTRAL SOUTH DAKOTA

CITY           SKY/WX    TMP DP  RH WIND       PRES   REMARKS
RAPID CTY ARPT CLOUDY    53  35  50 N12       29.81R
PIERRE         PTCLDY    45  34  65 SE18      29.89S
CUSTER         CLOUDY    47  28  47 NE3       29.86S
ELLSWORTH AFB  CLOUDY    56  35  45 N10       29.81R
PHILIP         CLOUDY    53  28  38 E16       29.82R
PINE RIDGE     CLOUDY    58  32  37 S9        29.80S
SPEARFISH      FAIR      52  34  50 N9G16     29.87R
WINNER         FAIR      40  34  79 SE15      29.91S
$$

SDZ004>011-016>023-039-040-260300-
NORTHEAST SOUTH DAKOTA

CITY           SKY/WX    TMP DP  RH WIND       PRES   REMARKS
ABERDEEN       CLOUDY    35  31  85 SE12      29.99S WCI  27
WATERTOWN      CLOUDY    35  34  96 SE7       29.99F WCI  29
BROOKINGS      CLOUDY    37  36  96 E9        30.00R
SISSETON         N/A     37  34  89 S14       30.02S
$$

SDZ017-020-022-023-036>040-048>070-260300-
SOUTHEAST SOUTH DAKOTA

CITY           SKY/WX    TMP DP  RH WIND       PRES   REMARKS
SIOUX FALLS    CLOUDY    40  38  93 E10       29.98F FOG
HURON          CLOUDY    41  38  89 E12       29.98S
CHAMBERLAIN    CLOUDY    39  36  88 E7        29.94F
MITCHELL       CLOUDY    42  40  92 E10       29.99R FOG
YANKTON        CLOUDY    39  37  93 E10       29.97S
$$

ABBREVIATIONS USED IN REMARKS
   TC - TEMPERATURE IN CELSIUS
  WCI - WIND CHILL INDEX
   HX - HEAT INDEX
  VSB - VISIBILITY




USA.gov is the U.S. government's official web portal to all federal, state and local government web resources and services.